Location: Unspecified
(43.4680°N, 87.1740°E)
Time: 20:08:42
(UTC+00:00)

Cosmos 494 Rocket - Pass Details

Date: 17 April 2021
Orbit: 742 x 771 km, 74.1° (Epoch: 11 May)

Event Time Altitude Azimuth Distance (km) Brightness Sun altitude
Rises 22:33:36 0° 341° (NNW) 3,250 7.3 -9.4°
Reaches altitude 10° 22:36:01 10° 344° (NNW) 2,316 6.6 -9.0°
Maximum altitude 22:41:15 70° 68° (ENE) 816 4.4 -8.2°
Drops below altitude 10° 22:46:26 10° 152° (SSE) 2,284 6.5 -7.3°
Sets 22:48:47 0° 155° (SSE) 3,200 7.3 -6.9°
